| time (UTC) | temp C | wind direction | speed KPH | gust KPH | rain 1hr cm | rain 24hr cm | rain mn cm | humidity % | barometer mb |
| 20260903021516 | 22 | 66 | 3.2 | 9.7 | 0.00 | 0.00 | 0.00 | 41 | 1023.0 |
| 20260903020516 | 23 | 68 | 8.0 | 17.7 | 0.00 | 0.00 | 0.00 | 40 | 1023.1 |
| 20260903015517 | 23 | 60 | 8.0 | 12.9 | 0.00 | 0.00 | 0.00 | 39 | 1023.0 |
| 20260903014517 | 23 | 54 | 6.4 | 14.5 | 0.00 | 0.00 | 0.00 | 38 | 1023.0 |
| 20260903013516 | 23 | 53 | 8.0 | 17.7 | 0.00 | 0.00 | 0.00 | 37 | 1023.0 |
| 20260903012516 | 24 | 49 | 9.7 | 19.3 | 0.00 | 0.00 | 0.00 | 37 | 1023.0 |
| 20260903011557 | 24 | 48 | 11.3 | 24.1 | 0.00 | 0.00 | 0.00 | 36 | 1022.9 |
| 20260903010517 | 24 | 48 | 12.9 | 20.9 | 0.00 | 0.00 | 0.00 | 36 | 1022.9 |
| 20260903005516 | 24 | 49 | 12.9 | 22.5 | 0.00 | 0.00 | 0.00 | 36 | 1022.7 |
| 20260903004517 | 24 | 47 | 9.7 | 16.1 | 0.00 | 0.00 | 0.00 | 37 | 1022.5 |
| 20260903003557 | 24 | 48 | 9.7 | 14.5 | 0.00 | 0.00 | 0.00 | 38 | 1022.5 |
| 20260903002517 | 24 | 47 | 8.0 | 12.9 | 0.00 | 0.00 | 0.00 | 39 | 1022.5 |
| 20260903001517 | 24 | 47 | 4.8 | 11.3 | 0.00 | 0.00 | 0.00 | 40 | 1022.5 |
| 20260903000517 | 24 | 44 | 4.8 | 8.0 | 0.00 | 0.00 | 0.00 | 39 | 1022.5 |
| 20260902235516 | 25 | 44 | 4.8 | 8.0 | 0.00 | 0.00 | 0.00 | 39 | 1022.4 |
| 20260902234516 | 25 | 46 | 4.8 | 9.7 | 0.00 | 0.00 | 0.00 | 38 | 1022.4 |
| 20260902233516 | 25 | 45 | 4.8 | 8.0 | 0.00 | 0.00 | 0.00 | 38 | 1022.3 |
| 20260902232517 | 24 | 51 | 3.2 | 8.0 | 0.00 | 0.00 | 0.00 | 39 | 1022.4 |
| 20260902231556 | 24 | 43 | 6.4 | 11.3 | 0.00 | 0.00 | 0.00 | 39 | 1022.2 |
| 20260902230516 | 25 | 46 | 8.0 | 12.9 | 0.00 | 0.00 | 0.00 | 36 | 1022.3 |
| 20260902225516 | 25 | 267 | 1.6 | 3.2 | 0.00 | 0.00 | 0.00 | 36 | 1022.1 |
| 20260902224516 | 25 | 0.0 | 0.0 | 0.00 | 0.00 | 0.00 | 37 | 1021.8 | |
| 20260902223516 | 25 | 0.0 | 0.0 | 0.00 | 0.00 | 0.00 | 36 | 1021.8 | |
| 20260902222516 | 26 | 0.0 | 0.0 | 0.00 | 0.00 | 0.00 | 36 | 1021.8 | |
| 20260902221556 | 26 | 0.0 | 0.0 | 0.00 | 0.00 | 0.00 | 35 | 1021.7 | |
| 20260902220516 | 26 | 0.0 | 1.6 | 0.00 | 0.00 | 0.00 | 34 | 1021.7 | |
| 20260902215516 | 26 | 267 | 1.6 | 1.6 | 0.00 | 0.00 | 0.00 | 33 | 1021.7 |
| 20260902214516 | 26 | 267 | 0.0 | 1.6 | 0.00 | 0.00 | 0.00 | 34 | 1021.5 |
| 20260902213516 | 26 | 267 | 1.6 | 1.6 | 0.00 | 0.00 | 0.00 | 34 | 1021.4 |
| 20260902212516 | 26 | 0.0 | 0.0 | 0.00 | 0.00 | 0.00 | 36 | 1021.4 | |
| 20260902211517 | 27 | 0.0 | 0.0 | 0.00 | 0.00 | 0.00 | 35 | 1021.4 | |
| 20260902210516 | 27 | 0.0 | 0.0 | 0.00 | 0.00 | 0.00 | 36 | 1021.4 | |
| 20260902205516 | 27 | 0.0 | 0.0 | 0.00 | 0.00 | 0.00 | 35 | 1021.3 | |
| 20260902204516 | 27 | 0.0 | 0.0 | 0.00 | 0.00 | 0.00 | 34 | 1021.0 | |
| 20260902203556 | 27 | 0.0 | 0.0 | 0.00 | 0.00 | 0.00 | 34 | 1021.1 | |
| 20260902202517 | 27 | 0.0 | 0.0 | 0.00 | 0.00 | 0.00 | 34 | 1021.0 | |
| 20260902201516 | 27 | 0.0 | 0.0 | 0.00 | 0.00 | 0.00 | 33 | 1020.7 | |
| 20260902200516 | 28 | 0.0 | 0.0 | 0.00 | 0.00 | 0.00 | 33 | 1020.8 | |
| 20260902195516 | 28 | 0.0 | 0.0 | 0.00 | 0.00 | 0.00 | 32 | 1020.6 | |
| 20260902194516 | 28 | 0.0 | 0.0 | 0.00 | 0.00 | 0.00 | 32 | 1020.3 | |
| 20260902193516 | 29 | 0.0 | 0.0 | 0.00 | 0.00 | 0.00 | 31 | 1020.3 | |
| 20260902192516 | 30 | 0.0 | 0.0 | 0.00 | 0.00 | 0.00 | 30 | 1020.2 | |
| 20260902191556 | 30 | 0.0 | 0.0 | 0.00 | 0.00 | 0.00 | 30 | 1020.2 | |
| 20260902190516 | 31 | 0.0 | 0.0 | 0.00 | 0.00 | 0.00 | 29 | 1020.1 | |
| 20260902185516 | 32 | 267 | 0.0 | 1.6 | 0.00 | 0.00 | 0.00 | 27 | 1020.2 |
| 20260902184516 | 32 | 267 | 0.0 | 3.2 | 0.00 | 0.00 | 0.00 | 25 | 1020.1 |
| 20260902183516 | 33 | 267 | 0.0 | 3.2 | 0.00 | 0.00 | 0.00 | 24 | 1020.1 |
| 20260902182516 | 34 | 267 | 3.2 | 8.0 | 0.00 | 0.00 | 0.00 | 23 | 1020.2 |
| 20260902181516 | 34 | 268 | 3.2 | 6.4 | 0.00 | 0.00 | 0.00 | 22 | 1020.2 |
| 20260902180516 | 35 | 259 | 3.2 | 6.4 | 0.00 | 0.00 | 0.00 | 21 | 1020.2 |
| 20260902175556 | 35 | 279 | 3.2 | 8.0 | 0.00 | 0.00 | 0.00 | 22 | 1020.2 |
| 20260902174516 | 35 | 264 | 3.2 | 8.0 | 0.00 | 0.00 | 0.00 | 22 | 1020.3 |
| 20260902173516 | 36 | 267 | 1.6 | 4.8 | 0.00 | 0.00 | 0.00 | 21 | 1020.4 |
| 20260902172516 | 35 | 0.0 | 3.2 | 0.00 | 0.00 | 0.00 | 22 | 1020.2 | |
| 20260902171516 | 35 | 287 | 3.2 | 8.0 | 0.00 | 0.00 | 0.00 | 22 | 1020.1 |
| 20260902170557 | 35 | 287 | 3.2 | 11.3 | 0.00 | 0.00 | 0.00 | 22 | 1020.2 |
| 20260902165517 | 35 | 285 | 4.8 | 9.7 | 0.00 | 0.00 | 0.00 | 22 | 1020.2 |
| 20260902164516 | 35 | 275 | 1.6 | 9.7 | 0.00 | 0.00 | 0.00 | 22 | 1020.4 |
| 20260902163516 | 36 | 264 | 3.2 | 9.7 | 0.00 | 0.00 | 0.00 | 22 | 1020.4 |
| 20260902162556 | 35 | 191 | 4.8 | 9.7 | 0.00 | 0.00 | 0.00 | 22 | 1020.5 |
| 20260902161556 | 35 | 278 | 4.8 | 12.9 | 0.00 | 0.00 | 0.00 | 22 | 1020.6 |
| 20260902160516 | 35 | 268 | 6.4 | 16.1 | 0.00 | 0.00 | 0.00 | 22 | 1020.6 |
| 20260902155516 | 35 | 244 | 6.4 | 14.5 | 0.00 | 0.00 | 0.00 | 22 | 1020.7 |
| 20260902154516 | 35 | 274 | 4.8 | 9.7 | 0.00 | 0.00 | 0.00 | 22 | 1020.7 |
| 20260902153516 | 35 | 348 | 4.8 | 12.9 | 0.00 | 0.00 | 0.00 | 23 | 1020.8 |
| 20260902152516 | 35 | 273 | 4.8 | 12.9 | 0.00 | 0.00 | 0.00 | 23 | 1020.8 |
| 20260902151517 | 35 | 316 | 3.2 | 11.3 | 0.00 | 0.00 | 0.00 | 23 | 1020.9 |
| 20260902150517 | 35 | 261 | 6.4 | 11.3 | 0.00 | 0.00 | 0.00 | 23 | 1021.0 |
| 20260902145516 | 34 | 267 | 6.4 | 12.9 | 0.00 | 0.00 | 0.00 | 23 | 1021.0 |
| 20260902144517 | 34 | 278 | 4.8 | 9.7 | 0.00 | 0.00 | 0.00 | 24 | 1021.1 |
| 20260902143516 | 35 | 276 | 6.4 | 12.9 | 0.00 | 0.00 | 0.00 | 24 | 1021.2 |
| 20260902142557 | 35 | 129 | 6.4 | 14.5 | 0.00 | 0.00 | 0.00 | 23 | 1021.2 |
| 20260902141516 | 34 | 266 | 3.2 | 11.3 | 0.00 | 0.00 | 0.00 | 24 | 1021.3 |
| 20260902140517 | 34 | 241 | 3.2 | 12.9 | 0.00 | 0.00 | 0.00 | 25 | 1021.5 |
| 20260902135517 | 34 | 278 | 4.8 | 9.7 | 0.00 | 0.00 | 0.00 | 25 | 1021.5 |
| 20260902134517 | 33 | 311 | 1.6 | 9.7 | 0.00 | 0.00 | 0.00 | 25 | 1021.5 |
| 20260902133516 | 34 | 308 | 6.4 | 9.7 | 0.00 | 0.00 | 0.00 | 24 | 1021.6 |
| 20260902132557 | 34 | 316 | 1.6 | 9.7 | 0.00 | 0.00 | 0.00 | 24 | 1021.7 |
| 20260902131517 | 33 | 264 | 4.8 | 11.3 | 0.00 | 0.00 | 0.00 | 25 | 1021.7 |
| 20260902130517 | 34 | 262 | 3.2 | 9.7 | 0.00 | 0.00 | 0.00 | 25 | 1021.9 |
| 20260902125557 | 33 | 218 | 1.6 | 8.0 | 0.00 | 0.00 | 0.00 | 25 | 1021.9 |
| 20260902124516 | 33 | 192 | 3.2 | 6.4 | 0.00 | 0.00 | 0.00 | 27 | 1022.2 |
| 20260902123516 | 33 | 264 | 3.2 | 6.4 | 0.00 | 0.00 | 0.00 | 28 | 1022.3 |
| 20260902122556 | 32 | 121 | 3.2 | 6.4 | 0.00 | 0.00 | 0.00 | 28 | 1022.2 |
| 20260902121517 | 32 | 112 | 6.4 | 11.3 | 0.00 | 0.00 | 0.00 | 29 | 1022.2 |
| 20260902120557 | 32 | 208 | 4.8 | 11.3 | 0.00 | 0.00 | 0.00 | 30 | 1022.3 |
| 20260902115516 | 31 | 266 | 1.6 | 8.0 | 0.00 | 0.00 | 0.00 | 26 | 1022.4 |
| 20260902114516 | 31 | 295 | 3.2 | 8.0 | 0.00 | 0.00 | 0.00 | 31 | 1022.6 |
| 20260902113516 | 31 | 294 | 3.2 | 9.7 | 0.00 | 0.00 | 0.00 | 32 | 1022.7 |
| 20260902112517 | 31 | 300 | 3.2 | 8.0 | 0.00 | 0.00 | 0.00 | 36 | 1022.8 |
| 20260902111516 | 31 | 245 | 1.6 | 4.8 | 0.00 | 0.00 | 0.00 | 39 | 1023.0 |
| 20260902110517 | 30 | 102 | 3.2 | 6.4 | 0.00 | 0.00 | 0.00 | 41 | 1023.0 |
| 20260902105557 | 29 | 277 | 1.6 | 8.0 | 0.00 | 0.00 | 0.00 | 43 | 1022.9 |
| 20260902104517 | 29 | 256 | 3.2 | 8.0 | 0.00 | 0.00 | 0.00 | 45 | 1023.1 |
| 20260902103517 | 28 | 282 | 3.2 | 6.4 | 0.00 | 0.00 | 0.00 | 47 | 1023.2 |
| 20260902102517 | 28 | 204 | 4.8 | 9.7 | 0.00 | 0.00 | 0.00 | 48 | 1023.2 |
| 20260902101517 | 28 | 261 | 1.6 | 6.4 | 0.00 | 0.00 | 0.00 | 51 | 1023.2 |
| 20260902100517 | 27 | 280 | 1.6 | 8.0 | 0.00 | 0.00 | 0.00 | 53 | 1023.1 |
| 20260902095557 | 27 | 254 | 1.6 | 8.0 | 0.00 | 0.00 | 0.00 | 55 | 1023.1 |
| 20260902094517 | 27 | 43 | 1.6 | 4.8 | 0.00 | 0.00 | 0.00 | 54 | 1023.3 |
| 20260902093517 | 27 | 211 | 3.2 | 6.4 | 0.00 | 0.00 | 0.00 | 54 | 1023.3 |
| 20260902092517 | 27 | 99 | 1.6 | 4.8 | 0.00 | 0.00 | 0.00 | 53 | 1023.2 |
| 20260902091516 | 26 | 123 | 1.6 | 4.8 | 0.00 | 0.00 | 0.00 | 55 | 1023.2 |
| 20260902090517 | 26 | 125 | 0.0 | 4.8 | 0.00 | 0.00 | 0.00 | 55 | 1023.1 |
| 20260902085517 | 25 | 69 | 1.6 | 4.8 | 0.00 | 0.00 | 0.00 | 57 | 1023.0 |
| 20260902084516 | 25 | 32 | 1.6 | 6.4 | 0.00 | 0.00 | 0.00 | 55 | 1023.1 |
| 20260902083517 | 24 | 61 | 1.6 | 4.8 | 0.00 | 0.00 | 0.00 | 57 | 1023.0 |
| 20260902082517 | 23 | 25 | 0.0 | 4.8 | 0.00 | 0.00 | 0.00 | 56 | 1022.9 |
| 20260902081517 | 23 | 70 | 1.6 | 4.8 | 0.00 | 0.00 | 0.00 | 55 | 1022.9 |
| 20260902080517 | 22 | 68 | 0.0 | 3.2 | 0.00 | 0.00 | 0.00 | 56 | 1022.8 |
| 20260902075516 | 22 | 0.0 | 4.8 | 0.00 | 0.00 | 0.00 | 56 | 1022.6 | |
| 20260902074557 | 21 | 62 | 3.2 | 8.0 | 0.00 | 0.00 | 0.00 | 56 | 1022.3 |
| 20260902073517 | 21 | 70 | 4.8 | 8.0 | 0.00 | 0.00 | 0.00 | 58 | 1022.2 |
| 20260902072517 | 21 | 45 | 3.2 | 9.7 | 0.00 | 0.00 | 0.00 | 57 | 1022.2 |
| 20260902071517 | 20 | 45 | 4.8 | 8.0 | 0.00 | 0.00 | 0.00 | 54 | 1022.1 |
| 20260902070517 | 20 | 47 | 4.8 | 8.0 | 0.00 | 0.00 | 0.00 | 51 | 1022.2 |
| 20260902065517 | 19 | 44 | 6.4 | 11.3 | 0.00 | 0.00 | 0.00 | 51 | 1022.0 |
| 20260902064517 | 19 | 43 | 8.0 | 12.9 | 0.00 | 0.00 | 0.00 | 50 | 1022.1 |
| 20260902063517 | 19 | 50 | 4.8 | 9.7 | 0.00 | 0.00 | 0.00 | 49 | 1021.9 |
| 20260902062517 | 18 | 47 | 6.4 | 14.5 | 0.00 | 0.00 | 0.00 | 49 | 1021.7 |
| 20260902061517 | 18 | 46 | 8.0 | 12.9 | 0.00 | 0.00 | 0.00 | 47 | 1021.6 |
| 20260902060517 | 18 | 47 | 8.0 | 11.3 | 0.00 | 0.00 | 0.00 | 46 | 1021.6 |
| 20260902055517 | 18 | 46 | 4.8 | 9.7 | 0.00 | 0.00 | 0.00 | 44 | 1021.6 |
| 20260902054557 | 18 | 50 | 3.2 | 9.7 | 0.00 | 0.00 | 0.00 | 44 | 1021.4 |
| 20260902053517 | 18 | 43 | 6.4 | 9.7 | 0.00 | 0.00 | 0.00 | 43 | 1021.3 |
| 20260902052517 | 19 | 52 | 4.8 | 8.0 | 0.00 | 0.00 | 0.00 | 43 | 1021.1 |
| 20260902051517 | 19 | 62 | 4.8 | 11.3 | 0.00 | 0.00 | 0.00 | 43 | 1021.2 |
| 20260902050517 | 19 | 55 | 4.8 | 9.7 | 0.00 | 0.00 | 0.00 | 43 | 1021.2 |
| 20260902045657 | 19 | 41 | 4.8 | 8.0 | 0.00 | 0.00 | 0.00 | 42 | 1021.0 |
| 20260902044517 | 19 | 59 | 3.2 | 8.0 | 0.00 | 0.00 | 0.00 | 42 | 1020.9 |
| 20260902043517 | 20 | 67 | 3.2 | 8.0 | 0.00 | 0.00 | 0.00 | 41 | 1020.8 |
| 20260902042517 | 20 | 46 | 4.8 | 9.7 | 0.00 | 0.00 | 0.00 | 40 | 1020.9 |
| 20260902041517 | 20 | 42 | 3.2 | 6.4 | 0.00 | 0.00 | 0.00 | 39 | 1020.9 |
| 20260902040517 | 20 | 59 | 3.2 | 8.0 | 0.00 | 0.00 | 0.00 | 38 | 1020.9 |
| 20260902035517 | 20 | 63 | 3.2 | 8.0 | 0.00 | 0.00 | 0.00 | 39 | 1021.0 |
| 20260902034517 | 20 | 76 | 3.2 | 6.4 | 0.00 | 0.00 | 0.00 | 39 | 1021.0 |
| 20260902033517 | 20 | 42 | 3.2 | 8.0 | 0.00 | 0.00 | 0.00 | 39 | 1021.0 |
| 20260902032517 | 20 | 82 | 3.2 | 6.4 | 0.00 | 0.00 | 0.00 | 39 | 1021.1 |
| 20260902031517 | 20 | 82 | 3.2 | 4.8 | 0.00 | 0.00 | 0.00 | 38 | 1021.0 |
| 20260902030517 | 21 | 81 | 3.2 | 8.0 | 0.00 | 0.00 | 0.00 | 38 | 1020.9 |
| 20260902025557 | 21 | 46 | 3.2 | 6.4 | 0.00 | 0.00 | 0.00 | 37 | 1020.9 |
| 20260902024517 | 21 | 56 | 1.6 | 4.8 | 0.00 | 0.00 | 0.00 | 37 | 1020.8 |
| 20260902023517 | 21 | 56 | 3.2 | 4.8 | 0.00 | 0.00 | 0.00 | 36 | 1020.8 |
| 20260902022517 | 21 | 56 | 1.6 | 6.4 | 0.00 | 0.00 | 0.00 | 36 | 1020.6 |